Weather History for Salt Lake City, UT

Change the Weather History Date:

Monday, February 11, 2013

  Actual Average Record
Temperature  
Mean Temperature 23 °F 33 °F  
Max Temperature 30 °F 42 °F 65 °F (1961)
Min Temperature 16 °F 24 °F -1 °F (1929)
Degree Days  
Heating Degree Days 42 32  
Month to date heating degree days 416 366  
Since 1 July heating degree days 3636 3760  
Cooling Degree Days 0 0  
Month to date cooling degree days 0 0  
Year to date cooling degree days 0 0  
Moisture  
Dew Point 17 °F    
Average Humidity 84    
Maximum Humidity 100    
Minimum Humidity 68    
Precipitation  
Precipitation 0.01 in 0.04 in 0.74 in (1884)
Month to date precipitation 0.22 0.45  
Year to date precipitation 1.74 1.70  
Snow  
Snow 0.10 in 0.40 in 5.10 in (1995)
Month to date snowfall 4.3 4.3  
Since 1 July snowfall 56.7 39.0  
Snow Depth 6.00 in    
Sea Level Pressure  
Sea Level Pressure 30.19 in    
Wind  
Wind Speed 5 mph (NW)    
Max Wind Speed 13 mph    
Max Gust Speed 14 mph    
Visibility 8 miles    
Events Snow    
T = Trace of Precipitation, MM = Missing Value Source: NWS Daily Summary

Daily Weather History Graph

Daily Weather History Graph

Search for Another Location

Airport:

Trip Planner

Search our weather history database for the weather conditions in past years. The results will help you decide how hot, cold, wet, or windy it might be!

Date:

Astronomy

Feb. 11, 2013 Rise Set
Actual Time 7:26 AM MST 5:58 PM MST
Civil Twilight 6:58 AM MST 6:26 PM MST
Nautical Twilight 6:26 AM MST 6:58 PM MST
Astronomical Twilight 5:54 AM MST 7:30 PM MST
Moon 7:52 AM MST (2/11) 8:00 PM MST (2/11)
Length of Visible Light 11h 28m
Length of Day
10h 31m
Waxing Crescent, 3% of the Moon is Illuminated
Feb 11
Waxing Crescent
Feb 17
First Quarter
Feb 25
Full
Mar 4
Last Quarter
Mar 11
New

Hourly Weather History & Observations

Time (MST) Temp. Windchill Dew Point Humidity Pressure Visibility Wind Dir Wind Speed Gust Speed Precip Events Conditions
12:53 AM 24.1 °F 19.7 °F 21.9 °F 91% 30.09 in 6.0 mi SE 3.5 mph - 0.00 in Snow Light Snow
1:44 AM 23.0 °F - 21.9 °F 96% 30.03 in 2.0 mi Calm Calm - 0.00 in   Mostly Cloudy
1:53 AM 19.9 °F - 19.9 °F 100% 30.11 in 5.0 mi Calm Calm - 0.00 in   Mostly Cloudy
2:17 AM 19.9 °F 13.4 °F 19.0 °F 96% 30.04 in 4.0 mi West 4.6 mph - 0.00 in   Mostly Cloudy
2:30 AM 19.9 °F 14.9 °F 18.0 °F 92% 30.04 in 4.0 mi WNW 3.5 mph - 0.00 in   Overcast
2:53 AM 19.9 °F 14.9 °F 18.0 °F 92% 30.12 in 6.0 mi West 3.5 mph - 0.00 in Snow Light Snow
3:09 AM 19.9 °F 14.9 °F 18.0 °F 92% 30.04 in 6.0 mi West 3.5 mph - 0.00 in Snow Light Snow
3:53 AM 19.9 °F 13.4 °F 17.1 °F 89% 30.12 in 6.0 mi North 4.6 mph - 0.00 in   Overcast
4:53 AM 18.0 °F 12.7 °F 16.0 °F 92% 30.13 in 5.0 mi NW 3.5 mph - 0.00 in Snow Light Snow
5:22 AM 19.0 °F - 17.1 °F 92% 30.05 in 5.0 mi Calm Calm - 0.00 in Snow Light Snow
5:53 AM 19.0 °F - 17.1 °F 92% 30.15 in 6.0 mi Calm Calm - 0.00 in   Overcast
6:53 AM 21.0 °F 16.2 °F 19.0 °F 92% 30.16 in 5.0 mi West 3.5 mph - 0.00 in Snow Light Snow
7:53 AM 21.0 °F - 19.9 °F 96% 30.18 in 7.0 mi Calm Calm - 0.00 in Snow Light Snow
8:14 AM 19.9 °F 13.4 °F 18.0 °F 92% 30.10 in 7.0 mi WSW 4.6 mph - 0.00 in Snow Light Snow
8:33 AM 19.0 °F - 18.0 °F 96% 30.10 in 8.0 mi Calm Calm - 0.00 in   Mostly Cloudy
8:53 AM 21.9 °F 17.2 °F 21.0 °F 96% 30.19 in 9.0 mi West 3.5 mph - 0.00 in   Scattered Clouds
9:53 AM 18.0 °F 6.9 °F 14.0 °F 84% 30.23 in 9.0 mi North 9.2 mph - N/A   Scattered Clouds
10:20 AM 19.9 °F 10.1 °F 16.0 °F 85% 30.14 in 8.0 mi North 8.1 mph - N/A   Mostly Cloudy
10:53 AM 24.1 °F 15.2 °F 19.9 °F 84% 30.23 in 8.0 mi NNW 8.1 mph - N/A   Mostly Cloudy
11:14 AM 26.1 °F 19.4 °F 21.0 °F 81% 30.15 in 9.0 mi NNW 5.8 mph - N/A   Scattered Clouds
11:53 AM 27.0 °F 20.5 °F 19.0 °F 72% 30.22 in 10.0 mi WNW 5.8 mph - N/A   Partly Cloudy
12:53 PM 27.0 °F 19.5 °F 19.9 °F 75% 30.22 in 10.0 mi NW 6.9 mph - N/A   Scattered Clouds
1:53 PM 28.9 °F 22.8 °F 19.9 °F 69% 30.22 in 10.0 mi NW 5.8 mph - N/A   Partly Cloudy
2:53 PM 30.0 °F 24.1 °F 19.9 °F 66% 30.22 in 10.0 mi North 5.8 mph - N/A   Scattered Clouds
3:53 PM 27.0 °F 18.7 °F 17.1 °F 66% 30.24 in 10.0 mi NW 8.1 mph - N/A   Partly Cloudy
4:53 PM 26.1 °F 18.4 °F 16.0 °F 66% 30.26 in 10.0 mi North 6.9 mph - N/A   Partly Cloudy
5:53 PM 19.9 °F 12.1 °F 12.0 °F 71% 30.28 in 10.0 mi NNW 5.8 mph - N/A   Scattered Clouds
6:53 PM 17.1 °F 8.7 °F 10.9 °F 77% 30.31 in 10.0 mi NNW 5.8 mph - N/A   Scattered Clouds
7:53 PM 19.0 °F 10.0 °F 14.0 °F 81% 30.31 in 10.0 mi NNW 6.9 mph - N/A   Scattered Clouds
8:53 PM 19.0 °F - 14.0 °F 81% 30.32 in 10.0 mi Calm Calm - N/A   Scattered Clouds
9:53 PM 19.0 °F 13.9 °F 15.1 °F 85% 30.35 in 10.0 mi SW 3.5 mph - N/A   Mostly Cloudy
10:53 PM 17.1 °F 11.7 °F 12.0 °F 81% 30.33 in 10.0 mi ESE 3.5 mph - N/A   Scattered Clouds
11:53 PM 19.0 °F 12.3 °F 12.0 °F 74% 30.33 in 10.0 mi SSE 4.6 mph - N/A   Scattered Clouds